Location: Dana
(41.8364°N, 106.7042°W)
Time: 13:10:25
(UTC+00:00)

ISS - Pass Details

Date: 20 April 2026
Orbit: 414 x 424 km, 51.6° (Epoch: 12 May)

Event Time Altitude Azimuth Distance (km) Brightness Sun altitude
Exits shadow 11:12:51 21° 234° (SW) 1,002 -2.5 -12.2°
Maximum altitude 11:14:58 90° 157° (SSE) 423 -3.8 -11.8°
Drops below altitude 10° 11:18:21 10° 55° (NE) 1,505 0.6 -11.3°
Sets 11:20:28 0° 56° (NE) 2,375 2.1 -10.9°
